This demonstration page uses our WeatherBlox Daily Observations layout. Learn more.

Left ArrowRight Arrow

41.55636, -103.73856

Hourly Observations for July 10, 2020

Temp ( °F °C ) Dew Point ( °F °C ) Humidity (%) Winds ( mph kmh ) Pressure ( in mb ) Visibility ( mi km ) Precip ( " mm )
6:58 pm 18:58 Mostly Cloudy 81 27.1 44 6.7 27 27 NNW 3 6 29.91 1013 10 16 0.00 0.00
7:58 pm 19:58 Clear 75 24.1 50 9.9 41 41 SSE 15 24 29.91 1013 10 16 0.00 0.00
8:58 pm 20:58 Clear 71 21.6 50 10.2 48 48 SSE 17 28 29.93 1014 10 16 0.00 0.00
9:58 pm 21:58 Clear 70 21.1 55 13 60 60 S 22 35 29.84 1010 10 16 0.00 0.00
10:58 pm 22:58 Clear 68 19.9 56 13.4 66 66 ESE 16 26 29.92 1013 10 16 0.00 0.00
11:58 pm 23:58 Partly Cloudy 64 17.9 52 11 64 64 ESE 15 24 29.96 1015 10 16 0.00 0.00
12:58 am 00:58 Mostly Cloudy 64 17.9 54 12.3 70 70 SE 17 28 29.96 1015 10 16 0.00 0.00
1:58 am 01:58 Partly Cloudy 64 17.5 57 13.8 79 79 SE 25 41 29.95 1014 10 16 0.00 0.00
2:58 am 02:58 Mostly Cloudy 64 17.7 56 13.6 77 77 SSE 30 48 29.92 1013 10 16 0.00 0.00
3:58 am 03:58 Clear 64 17.9 59 15 83 83 S 31 50 29.93 1013 10 16 0.00 0.00
4:58 am 04:58 Clear 64 17.8 60 15.4 86 86 S 30 48 29.93 1013 10 16 0.00 0.00
5:58 am 05:58 Sunny 67 19.2 61 16.1 82 82 SSW 32 52 29.94 1014 10 16 0.00 0.00
6:58 am 06:58 Sunny 69 20.5 62 16.9 80 80 SSW 32 52 29.93 1014 10 16 0.00 0.00
7:58 am 07:58 Sunny 71 21.9 63 17.2 75 75 SSW 30 48 29.95 1014 10 16 0.00 0.00
8:58 am 08:58 Sunny 76 24.6 63 17.2 64 64 SW 29 46 29.96 1015 10 16 0.00 0.00
9:58 am 09:58 Sunny 82 27.9 61 16.3 49 49 SSW 23 37 29.94 1014 10 16 0.00 0.00
10:58 am 10:58 Sunny 90 32.1 50 10 26 26 SSW 14 22 29.92 1013 10 16 0.00 0.00
11:58 am 11:58 Sunny 93 34 30 -0.9 11 11 SW 6 9 29.91 1013 10 16 0.00 0.00
12:58 pm 12:58 Sunny 96 35.5 26 -3.2 8 8 NW 3 6 29.89 1012 10 16 0.00 0.00
1:58 pm 13:58 Sunny 97 36.2 24 -4.7 7 7 W 10 17 29.86 1011 10 16 0.00 0.00
2:58 pm 14:58 Sunny 99 37.3 26 -3.5 7 7 WSW 6 9 29.85 1011 10 16 0.00 0.00
3:58 pm 15:58 Sunny 98 36.6 24 -4.5 7 7 W 7 11 29.84 1010 10 16 0.00 0.00
4:58 pm 16:58 Sunny 101 38.1 17 -8.5 5 5 WNW 18 30 29.82 1010 10 16 0.00 0.00
5:58 pm 17:58 Sunny 99 37.4 16 -9.1 5 5 NW 26 43 29.83 1010 10 16 0.00 0.00

Powered by AerisWeather